sat.trackr.live / text

‹ back to catalog

STARLINK-4740

NORAD 53871 · 2022-114BF

PAYLOAD ACTIVE UNKNOWN

§ Identity

Operator
Country
US
Launch date
2022-09-19
Launch site
AFETR
Launch vehicle
Mass (kg)
RCS (m²)

Purposes: comms

External: N2YO · Heavens-Above · Gunter

§ Orbital elements

Epoch: 2026-05-25T02:29:19.789728Z

Period
95.44 min
Inclination
53.2135°
Eccentricity
0.0001210
Mean motion
15.08838684 rev/d
Perigee alt
538.9 km
Apogee alt
540.6 km
Semi-major
6,917.9 km
B*
3.2263e-5
RAAN
280.7054°
Arg perigee
86.5543°
Mean anomaly
273.5587°
Rev number
20,493

§ Raw data

STARLINK-47401 53871U 22114BF  26145.10370127  .00000226  00000+0  32263-4 0  99922 53871  53.2135 280.7054 0001210  86.5543 273.5587 15.08838684204932

JSON: /api/v1/satellites/53871 · /tle

For live sub-satellite position, see the globe view (requires WebGL).

§ Visibility from observer

Set your observer location to see the next 7 days of passes ≥ 10°. The values pass through the URL so the page stays shareable.

No JS? Fill the form by hand. The geolocation button needs JavaScript.